This is the latest recevied weather packets stored in our database for station/object KX4O-13. If no packets are shown the sender has not sent any weather packets the latest 1 day(s).
| Time | Temp. | Humidity | Pressure | Rain* | Wind** | Luminosity | Snow |
|---|---|---|---|---|---|---|---|
| 1777997453 | 26.11° C | 40% | 1011.7 hPa | 0 mm | 2.68 m/s, 193° | 828 W/m² | - |
| 1777997153 | 25.56° C | 40% | 1011.8 hPa | 0 mm | 2.68 m/s, 184° | 821 W/m² | - |
| 1777996853 | 25.56° C | 40% | 1011.9 hPa | 0 mm | 2.24 m/s, 284° | 814 W/m² | - |
| 1777996553 | 25.56° C | 39% | 1012 hPa | 0 mm | 3.13 m/s, 193° | 814 W/m² | - |
| 1777996255 | 25.56° C | 41% | 1012.1 hPa | 0 mm | 3.13 m/s, 205° | 803 W/m² | - |
| 1777995953 | 25.56° C | 40% | 1012.2 hPa | 0 mm | 2.68 m/s, 201° | 802 W/m² | - |
| 1777995653 | 25.56° C | 39% | 1012.2 hPa | 0 mm | 2.24 m/s, 180° | 795 W/m² | - |
| 1777995353 | 25° C | 42% | 1012.2 hPa | 0 mm | 2.24 m/s, 233° | 780 W/m² | - |
| 1777995053 | 25.56° C | 43% | 1012 hPa | 0 mm | 2.24 m/s, 181° | 777 W/m² | - |
| 1777994753 | 25° C | 42% | 1012.1 hPa | 0 mm | 2.24 m/s, 226° | 766 W/m² | - |
| 1777994453 | 25° C | 43% | 1012.2 hPa | 0 mm | 2.24 m/s, 207° | 759 W/m² | - |
| 1777994153 | 25° C | 42% | 1012.1 hPa | 0 mm | 1.79 m/s, 194° | 749 W/m² | - |
| 1777993855 | 24.44° C | 43% | 1012 hPa | 0 mm | 2.68 m/s, 183° | 740 W/m² | - |
| 1777993553 | 24.44° C | 41% | 1011.9 hPa | 0 mm | 2.68 m/s, 244° | 728 W/m² | - |
| 1777993253 | 24.44° C | 45% | 1011.9 hPa | 0 mm | 2.24 m/s, 178° | 717 W/m² | - |
| 1777992953 | 24.44° C | 47% | 1012 hPa | 0 mm | 2.68 m/s, 176° | 703 W/m² | - |
| 1777992653 | 23.89° C | 43% | 1012.1 hPa | 0 mm | 3.13 m/s, 180° | 694 W/m² | - |
| 1777992353 | 23.89° C | 45% | 1012.1 hPa | 0 mm | 2.68 m/s, 174° | 689 W/m² | - |
| 1777992053 | 23.33° C | 45% | 1012.1 hPa | 0 mm | 3.13 m/s, 187° | 677 W/m² | - |
| 1777991753 | 23.89° C | 44% | 1012.1 hPa | 0 mm | 2.68 m/s, 193° | 663 W/m² | - |
| 1777991455 | 23.89° C | 46% | 1012.1 hPa | 0 mm | 1.79 m/s, 184° | 654 W/m² | - |
| 1777991153 | 23.33° C | 48% | 1012.1 hPa | 0 mm | 2.24 m/s, 181° | 643 W/m² | - |
| 1777990853 | 22.78° C | 47% | 1012 hPa | 0 mm | 2.24 m/s, 168° | 629 W/m² | - |
| 1777990553 | 22.78° C | 52% | 1012.1 hPa | 0 mm | 1.79 m/s, 186° | 619 W/m² | - |
| 1777990253 | 22.78° C | 51% | 1012.1 hPa | 0 mm | 1.34 m/s, 168° | 606 W/m² | - |
* Rain latest hour (hover to see other rain measurements)
** Current wind speed in m/s (hover to see current wind gust speed)